Location: Le Pont-Calleck
(47.9913°N, 3.3393°W)
Time: 17:58:19
(UTC+00:00)

Daily predictions for brighter satellites

Satellite Brightness Start Highest point End
(mag) Time Altitude Azimuth Time Altitude Azimuth Time Altitude Azimuth
Cosmos 2016 Rocket 4.0 18:05:37 10° S 18:11:36 64° E 18:17:41 10° NNE
STARLINK-77 3.8 18:10:35 10° SW 18:14:31 54° SE 18:18:27 10° ENE
STARLINK-1009 3.7 18:12:52 10° SW 18:15:57 40° SE 18:19:03 10° ENE
STARLINK-25 3.8 18:12:12 10° SW 18:16:08 55° SE 18:20:05 10° ENE
STARLINK-1015 3.6 18:14:24 10° SW 18:17:30 41° SE 18:20:37 10° ENE
Cosmos 1782 3.7 18:13:57 10° NNW 18:17:54 55° W 18:21:48 10° S
STARLINK-71 3.7 18:14:02 10° SW 18:18:00 61° SSE 18:21:59 10° ENE
STARLINK-79 3.8 18:15:30 10° SW 18:19:26 58° SSE 18:23:24 10° ENE
STARLINK-78 3.7 18:17:10 10° SW 18:21:08 60° SE 18:25:06 10° ENE
STARLINK-57 3.7 18:18:53 10° SW 18:22:52 64° SSE 18:26:51 10° ENE
Meteor 1-10 Rocket 4.2 18:17:29 10° N 18:23:09 82° ENE 18:28:42 10° SSE
SL-4 R/B 4.0 18:20:01 10° WNW 18:24:20 34° SW 18:28:27 10° SSE
STARLINK-49 3.7 18:20:25 10° SW 18:24:23 63° SSE 18:28:23 10° ENE
Cosmos 2297 3.9 18:19:09 10° SSW 18:24:48 78° WNW 18:30:29 10° NNE
Meteor 2-6 Rocket 4.3 18:19:34 10° NNW 18:25:11 85° WSW 18:30:37 10° S
STARLINK-27 3.6 18:22:04 10° SW 18:26:03 64° SSE 18:30:02 10° ENE
NOSS 3-1 (C) 3.5 18:21:16 10° SSW 18:26:37 56° ESE 18:32:50 10° NE
STARLINK 1040 2.8 18:24:28 10° SW 18:27:14 56° SSE 18:29:51 11° ENE
Cosmos 2233 Rocket 4.3 18:21:46 10° SSE 18:27:32 44° E 18:33:22 10° NNE
STARLINK-74 3.6 18:23:43 10° SW 18:27:42 66° SSE 18:31:43 10° ENE
STARLINK-39 3.6 18:25:21 10° SW 18:29:21 68° SSE 18:33:19 10° ENE
Cosmos 1812 2.8 18:26:22 10° N 18:30:11 54° ENE 18:33:58 10° SSE
USA 116 4.2 18:27:01 10° NNE 18:30:47 45° E 18:35:00 10° S
STARLINK-31 3.6 18:27:02 10° SW 18:31:02 70° SSE 18:34:57 11° ENE
Cosmos 1862 3.2 18:27:26 10° S 18:31:24 73° E 18:35:24 10° NNE
STARLINK-69 3.5 18:28:49 10° SW 18:32:50 76° SSE 18:36:42 11° ENE
STARLINK-58 3.2 18:29:54 10° WSW 18:33:27 87° SSE 18:36:49 11° ENE
Cosmos 1633 3.3 18:29:58 10° SSW 18:33:31 57° WNW 18:37:06 10° N
Cosmos 2369 Rocket 2.6 18:28:28 10° S 18:33:44 42° ESE 18:39:05 10° NE
STARLINK-21 3.5 18:30:20 10° SW 18:34:20 73° SSE 18:38:08 11° ENE
STARLINK-62 3.2 18:31:34 10° WSW 18:35:07 89° NW 18:38:25 12° ENE
CZ-2D R/B 3.3 18:31:34 10° SSE 18:35:22 58° ENE 18:39:14 10° N
STARLINK-45 3.5 18:32:10 10° WSW 18:36:12 81° SSE 18:39:57 12° ENE
COSMOS 2487 4.2 18:34:29 10° NNE 18:36:35 15° NE 18:37:45 13° ENE
STARLINK-34 3.2 18:33:12 10° WSW 18:36:46 87° NNW 18:40:00 12° ENE
STARLINK-70 3.5 18:33:45 10° WSW 18:37:46 80° SSE 18:41:27 12° ENE
STARLINK-76 3.5 18:35:16 10° SW 18:39:17 79° SSE 18:42:53 13° ENE
Cosmos 1777 Rocket 4.0 18:35:28 10° NNW 18:40:47 79° ENE 18:46:04 10° SSE
STARLINK-23 3.5 18:36:56 10° WSW 18:40:57 80° SSE 18:44:30 13° ENE
STARLINK-32 3.5 18:38:35 10° WSW 18:42:36 82° SSE 18:46:05 14° ENE
STARLINK-40 3.5 18:40:14 10° WSW 18:44:15 84° SSE 18:47:40 14° ENE
STARLINK-44 3.5 18:41:53 10° WSW 18:45:55 86° SSE 18:49:16 15° ENE
Sich 1 3.3 18:42:10 10° SSW 18:46:26 70° WNW 18:50:42 10° N
Cosmos 1346 Rocket 3.6 18:43:27 10° SSE 18:46:53 28° E 18:50:18 10° NNE
STARLINK-37 3.5 18:43:39 10° WSW 18:47:41 90° N 18:50:59 15° ENE
Okean-O 4.3 18:44:13 10° SSW 18:48:22 39° W 18:52:32 10° NNW
Cosmos 2242 Rocket 4.1 18:44:35 10° N 18:48:49 37° ENE 18:53:02 10° SE
STARLINK-36 3.5 18:45:11 10° WSW 18:49:13 89° SSE 18:52:26 16° ENE
ADEOS Rocket 3.7 18:42:22 10° NNE 18:50:02 59° E 18:57:36 10° S
STARLINK-1027 4.4 18:46:21 10° SSW 18:50:17 38° SE 18:52:59 18° E
HJ-1C 3.8 18:47:23 10° SE 18:50:31 39° ENE 18:53:38 10° N
STARLINK-68 3.5 18:47:02 10° WSW 18:51:03 85° NNW 18:54:13 16° ENE
STARLINK-63 3.5 18:48:36 10° WSW 18:52:38 85° NNW 18:55:44 17° ENE
Cosmos 1470 Rocket 3.8 18:48:47 10° SSE 18:52:55 45° E 18:57:07 10° NNE
STARLINK-1023 2.8 18:49:56 10° WSW 18:53:02 80° SSE 18:55:01 21° ENE
STARLINK-35 3.5 18:50:09 10° WSW 18:54:10 86° NNW 18:57:12 17° ENE
STARLINK-1024 4.4 18:51:38 10° SSW 18:55:23 34° SE 18:57:34 20° E
STARLINK-51 3.5 18:51:49 10° WSW 18:55:50 84° NNW 18:58:49 18° ENE
COSMO-SKYMED 1 3.4 18:52:13 10° N 18:56:27 55° WNW 19:00:41 10° SSW
Cosmos 2263 4.5 18:51:04 10° S 18:56:34 47° ESE 19:02:03 10° NE
STARLINK-30 3.5 18:53:28 10° WSW 18:57:30 83° NNW 19:00:24 18° ENE
STARLINK-33 3.6 18:54:53 10° W 18:58:05 50° NNW 19:00:12 19° NE
Cosmos 1862 Rocket 3.4 18:54:01 10° N 18:58:23 75° E 19:02:43 10° SSE
STARLINK-72 3.6 18:55:07 10° WSW 18:59:09 81° NNW 19:01:59 19° ENE
STARLINK-61 3.9 18:55:44 10° W 18:59:36 57° NNW 19:02:20 18° ENE
SL-27 R/B 3.0 18:56:24 10° NNW 18:59:42 56° WSW 19:02:56 10° S
NOSS 2-3 (E) 4.0 18:55:44 10° SSW 18:59:49 43° ESE 19:03:51 14° NE
Cosmos 724 4.2 18:54:06 10° NW 18:59:55 75° NE 19:05:45 10° SE
STARLINK-66 3.7 18:56:51 10° W 19:00:03 49° NNW 19:02:05 20° NE
STARLINK-55 3.7 18:57:21 10° W 19:00:32 48° NNW 19:02:32 20° NE
STARLINK-50 3.6 18:56:47 10° WSW 19:00:48 80° NNW 19:03:35 19° ENE
Lacrosse 4 Rocket 3.2 18:58:16 10° WSW 19:02:06 32° NW 19:06:02 10° NNE
STARLINK-28 3.8 18:59:03 10° W 19:02:13 45° NNW 19:04:09 20° NE
STARLINK-48 4.3 18:58:42 10° W 19:02:25 41° N 19:04:51 19° NE
STARLINK-59 3.6 18:58:31 10° WSW 19:02:33 76° NNW 19:05:15 20° ENE
CSL-04 Rocket 4.0 18:57:47 10° S 19:03:19 74° WSW 19:08:50 10° NNW
ARGOS 3.8 18:58:38 10° SE 19:03:30 35° ENE 19:08:23 10° N
STARLINK-56 3.6 19:00:04 10° WSW 19:04:06 77° NNW 19:06:44 21° ENE
STARLINK-1032 4.2 19:01:25 10° SSW 19:05:17 40° SE 19:07:09 25° E
STARLINK-73 3.6 19:01:45 10° WSW 19:05:46 75° NNW 19:08:20 21° ENE
STARLINK-1007 2.9 19:03:04 10° WSW 19:06:14 83° NNW 19:07:47 28° ENE
Aureole 2 Rocket 1.6 19:04:13 10° SSW 19:06:50 86° WNW 19:09:08 13° NNE
STARLINK-38 3.6 19:03:25 10° WSW 19:07:26 74° NNW 19:09:57 22° ENE
USA 234 4.0 19:03:47 16° ENE 19:08:38 42° N 19:14:40 10° WNW
STARLINK-65 3.6 19:05:05 10° WSW 19:09:06 73° NNW 19:11:32 23° ENE
FREGAT/IRIS 4.0 19:11:12 21° NNE 19:11:12 21° NNE 19:12:32 10° N
STARLINK-1011 4.1 19:06:20 10° SSW 19:10:15 43° SE 19:11:56 28° E
STARLINK-53 3.7 19:06:51 10° WSW 19:10:51 70° NNW 19:13:14 23° ENE
Lacrosse 5 rocket 3.1 19:08:03 10° WNW 19:11:52 26° N 19:14:39 15° NE
STARLINK-64 3.7 19:08:23 10° W 19:11:55 54° NNW 19:13:49 24° NE
Okean 1 4.2 19:08:32 10° NNE 19:12:02 28° ENE 19:12:22 28° E
STARLINK-42 3.7 19:09:37 10° W 19:12:45 45° NNW 19:14:13 26° NE
Meteor 1-20 Rocket 4.4 19:08:10 10° SSE 19:13:17 42° E 19:18:28 10° NNE
NOSS 2-3 (D) 3.8 19:10:31 10° SSW 19:14:41 54° ESE 19:18:07 18° NE
Cosmos 1703 Rocket 3.9 19:10:44 10° N 19:14:59 42° ENE 19:18:13 16° SE
STARLINK-1036 4.0 19:11:15 10° SW 19:15:12 46° SE 19:16:43 31° E
Meteor 1-27 Rocket 4.2 19:09:53 10° NNW 19:15:22 63° W 19:20:54 10° S
Cosmos 2297 Rocket 3.9 19:12:16 10° N 19:15:31 15° NE 19:16:44 14° NE
USA 229 DEB 3.8 19:10:02 10° SW 19:16:36 77° NW 19:23:34 10° NE
USA 229 3.8 19:10:08 10° SW 19:16:43 77° NW 19:23:40 10° NE
STARLINK-29 3.1 19:14:11 10° WNW 19:17:36 79° SSW 19:18:54 35° SE
STARLINK-1010 3.0 19:15:17 10° WSW 19:18:28 70° NNW 19:19:33 37° NE
Cosmos 921 Rocket 3.6 19:14:27 10° SSW 19:18:54 61° WNW 19:23:24 10° NNE
Cosmos 1939 Rocket 4.1 19:14:57 10° S 19:18:55 46° W 19:22:56 10° NNW
Ariane Rocket 2.9 19:13:57 10° SSE 19:19:01 74° ENE 19:24:08 10° NNW
CZ-4 R/B 3.6 19:16:22 10° SSW 19:20:05 30° W 19:23:47 10° NNW
STARLINK-1044 3.9 19:16:09 10° SW 19:20:09 50° SE 19:21:29 35° E
Okean 1-7 3.4 19:16:13 10° N 19:20:17 40° ENE 19:21:57 28° ESE
Gbstr 26 Del rocket 4.3 19:19:07 10° S 19:22:12 22° SE 19:22:12 22° SE
FALCON 9 DEB 3.4 19:20:09 10° WNW 19:23:35 63° SSW 19:24:49 35° SE
NOSS 3-1 (A) 3.3 19:18:08 10° SW 19:23:42 84° SE 19:30:11 10° NE
STARLINK-75 3.9 19:20:44 10° W 19:24:01 43° NNW 19:25:11 30° NE
STARLINK-26 4.3 19:23:01 10° WNW 19:26:15 35° N 19:27:14 29° NNE
H-2A R/B 2.1 19:21:19 10° SSE 19:26:34 60° ENE 19:31:57 10° N
STARLINK-22 3.8 19:24:18 10° W 19:27:34 46° NNW 19:28:35 34° NNE
STARLINK-41 3.9 19:25:46 10° W 19:29:02 44° NNW 19:30:00 34° NNE
STARLINK-52 3.1 19:25:42 10° WNW 19:29:05 72° SSW 19:29:52 49° SE
SJ 16-02 1.9 19:25:03 10° N 19:29:11 37° ENE 19:29:34 36° ENE
STARLINK-1037 3.7 19:25:59 10° SW 19:30:02 58° SSE 19:31:01 44° E
STARLINK-1008 3.3 19:27:31 10° WSW 19:30:44 60° NNW 19:31:24 47° NNE
STARLINK-1016 3.3 19:27:55 10° WSW 19:31:06 59° NNW 19:31:42 48° NNE
STARLINK-1031 3.5 19:28:19 10° SW 19:32:18 65° SSE 19:33:11 48° E
STARLINK-43 3.9 19:28:56 10° WNW 19:32:30 43° NNE 19:33:07 39° NE
STARLINK-1025 3.3 19:30:19 10° WSW 19:33:31 58° NNW 19:34:02 49° NNE
Cosmos 1464 Rocket 4.1 19:27:21 10° SSE 19:33:32 57° E 19:39:46 10° NNE
Cosmos 2227 Rocket 3.8 19:30:17 10° N 19:33:58 17° NE 19:34:26 17° NE
STARLINK-1029 3.0 19:31:01 10° WSW 19:34:11 69° NNW 19:34:32 61° NNE
STARLINK-1017 3.3 19:31:43 10° W 19:34:54 57° NNW 19:35:23 50° NNE
Nadezhda 4 Rocket 4.2 19:28:58 10° N 19:35:00 46° ENE 19:38:24 25° SE
STARLINK-1059 3.6 19:30:59 10° SW 19:35:03 62° SSE 19:35:52 50° E
Cosmos 990 Rocket 4.1 19:30:15 10° NNW 19:35:16 49° ENE 19:36:48 37° ESE
Cosmos 1943 Rocket 2.8 19:29:50 10° SW 19:35:19 57° WNW 19:40:48 10° NNE
STARLINK-1014 3.3 19:32:59 10° WSW 19:36:26 67° NNW 19:37:01 53° NNE
CENTAUR R/B 4.2 19:30:26 10° NW 19:36:44 29° NNE 19:40:39 20° ENE
Cosmos 44 3.9 19:34:00 10° NW 19:38:15 49° WSW 19:42:00 14° SSE
SJ-11-01 4.3 19:34:05 10° S 19:38:45 79° WSW 19:43:27 10° NNW
STARLINK-1048 3.4 19:35:59 10° W 19:39:10 54° NNW 19:39:28 51° N
Cosmos 2285 Rocket 4.3 19:33:29 10° NNW 19:39:49 69° WSW 19:46:09 10° S
STARLINK-1057 3.5 19:35:54 10° SW 19:40:00 67° SSE 19:40:37 57° E
STARLINK-1049 3.4 19:37:25 10° W 19:40:36 53° NNW 19:40:51 51° N
STARLINK-24 4.1 19:37:24 10° W 19:41:21 53° NNW 19:42:27 39° NE
Cosmos 1937 Rocket 3.8 19:36:34 10° NNW 19:41:36 42° ENE 19:42:17 40° E
STARLINK-1028 3.4 19:38:28 10° W 19:41:40 53° NNW 19:41:53 51° N
Cosmos 1340 3.4 19:38:11 10° SSW 19:41:53 54° WNW 19:45:36 10° N
STARLINK-1051 3.4 19:38:54 10° W 19:42:05 52° NNW 19:42:17 51° N
STARLINK-80 4.2 19:38:52 10° WNW 19:42:29 38° N 19:42:57 37° NNE
STARLINK-1021 3.5 19:39:58 10° W 19:43:10 52° NNW 19:43:20 51° N
Meteor 1-19 Rocket 4.3 19:37:53 10° N 19:43:41 57° ENE 19:46:18 31° SE
ARGOS Delta rocket 3.7 19:43:32 50° E 19:43:46 51° ENE 19:48:06 10° N
STARLINK-1019 3.5 19:41:29 10° W 19:44:40 51° NNW 19:44:47 51° N
STARLINK-1034 3.5 19:40:52 10° SW 19:44:59 71° SSE 19:45:25 64° ESE
STARLINK-1012 3.6 19:43:01 10° W 19:46:12 50° NNW 19:46:15 50° NNW
ATLAS 3B R/B 4.2 19:41:16 10° NW 19:46:20 22° N 19:49:17 17° NE
Timation 2 Rocket 4.2 19:41:28 10° NNW 19:48:17 61° NE 19:51:09 36° ESE
NOSS 2-3 (C) 3.7 19:44:28 10° SW 19:48:51 81° NW 19:51:39 27° NE
STARLINK-1026 3.7 19:46:03 10° W 19:49:10 48° NNW 19:49:10 48° NNW
CZ-2C R/B 3.2 19:44:22 11° SSE 19:49:57 78° ENE 19:55:41 10° NNW
STARLINK-1068 3.4 19:45:49 10° SW 19:49:57 76° SSE 19:50:11 73° ESE
STARLINK-81 4.1 19:46:26 10° W 19:50:23 51° NNW 19:51:05 45° NNE
STARLINK-1013 3.7 19:47:37 10° W 19:50:40 47° NNW 19:50:40 47° NNW
Cosmos 1933 Rocket 4.0 19:46:41 10° SSW 19:51:04 63° W 19:55:27 10° N
Meteor 2-4 Rocket 4.1 19:46:08 10° N 19:51:46 44° ENE 19:52:19 43° E
Lacrosse 5 4.2 19:48:26 10° S 19:48:32 10° S 19:48:32 10° S
STARLINK-54 4.1 19:48:19 10° W 19:52:14 49° NNW 19:52:52 44° NNE
STARLINK-1009 3.8 19:49:09 10° W 19:52:07 46° NNW 19:52:07 46° NNW
Meteor 1-25 Rocket 4.1 19:46:55 10° S 19:52:38 88° E 19:58:19 10° NNE
Cosmos 2034 Rocket 3.9 19:46:46 10° SSE 19:52:45 56° E 19:58:44 10° NNE
STARLINK-77 4.1 19:49:47 10° W 19:53:43 50° NNW 19:54:17 46° NNE
STARLINK-1015 3.9 19:50:43 10° W 19:53:38 45° NW 19:53:38 45° NW
STARLINK-25 4.1 19:51:26 10° W 19:55:21 49° NNW 19:55:51 46° N
Cosmos 2219 4.2 19:50:37 10° NNW 19:55:30 30° NE 19:55:30 30° NE
BREEZE-M DEB (TANK) 4.1 19:27:23 10° W 19:56:25 83° N 19:59:02 40° ENE
STARLINK-71 4.2 19:53:21 10° W 19:57:16 47° NNW 19:57:40 45° N
SJ-6B 2.7 19:58:18 75° NNW 19:58:18 75° NNW 20:01:48 10° NNW
STARLINK-79 4.1 19:54:46 10° W 19:58:41 48° NNW 19:59:02 47° N
STARLINK-1060 3.5 19:55:46 10° WSW 19:59:45 82° SSW 19:59:45 82° SSW
STARLINK-78 4.1 19:56:28 10° W 20:00:23 48° NNW 20:00:39 47° N
Cosmos 405 3.5 19:58:01 10° NNW 20:00:55 54° NW 20:00:55 54° NW
STARLINK-57 4.2 19:58:14 10° W 20:02:09 46° NNW 20:02:20 46° N
STARLINK-49 4.2 19:59:46 10° W 20:03:40 47° NNW 20:03:48 46° N
STARLINK-1030 3.7 20:00:45 10° WSW 20:04:34 75° WSW 20:04:34 75° WSW
STARLINK-27 4.2 20:01:26 10° W 20:05:20 46° NNW 20:05:23 46° N
STARLINK-74 4.3 20:03:07 10° W 20:06:59 46° NNW 20:06:59 46° NNW
USA 238 DEB 4.3 20:01:21 10° NW 20:08:03 42° NNE 20:09:27 38° ENE
USA 238 4.3 20:01:27 10° NW 20:08:08 41° NNE 20:09:32 38° ENE
STARLINK-39 4.3 20:04:46 10° W 20:08:34 45° NNW 20:08:34 45° NNW
SPOT 3 Rocket 3.4 20:07:22 53° SSE 20:08:40 84° ENE 20:13:55 10° NNW
STARLINK-1047 3.8 20:05:02 10° WSW 20:08:45 70° W 20:08:45 70° W
STARLINK-1020 3.9 20:05:43 10° WSW 20:09:19 66° WSW 20:09:19 66° WSW
Cosmos 1656 Rocket 3.7 20:04:41 10° SSW 20:10:12 76° WNW 20:15:32 12° NNE
STARLINK-31 4.4 20:06:28 10° W 20:10:12 45° NNW 20:10:12 45° NNW
COSMOS 2487 3.7 20:08:36 10° NNW 20:11:21 40° WNW 20:11:21 40° WNW
STARLINK-69 4.4 20:08:19 10° W 20:11:57 43° NNW 20:11:57 43° NNW
SL-24 DEB 4.2 20:12:52 66° S 20:13:31 84° W 20:18:13 10° N
STARLINK-21 4.5 20:09:48 10° W 20:13:22 43° NNW 20:13:22 43° NNW
Resurs 1-3 4.4 20:15:34 40° N 20:15:34 40° N 20:18:29 10° N
STARLINK-1052 4.1 20:10:43 10° WSW 20:14:08 59° W 20:14:08 59° W
USA 267 4.1 20:17:09 32° SSE 20:17:09 32° SSE 20:21:18 10° SSW
Cosmos 1092 Rocket 4.0 20:11:19 10° N 20:17:37 60° ENE 20:17:45 60° E
Cosmos 2369 Rocket 3.6 20:12:36 10° WSW 20:17:50 37° NW 20:23:09 10° NNE
Cosmos 468 Rocket 4.0 20:13:48 10° SSW 20:18:27 69° S 20:18:27 69° S
STARLINK-1035 4.2 20:15:16 10° WSW 20:18:48 58° W 20:18:48 58° W
SL-08 RB Rocket 3.8 20:20:55 72° W 20:20:55 72° W 20:25:17 10° NNW
Cosmos 1898 Rocket 3.7 20:21:35 10° NNW 20:26:43 65° WSW 20:27:25 58° SSW
Resurs 01 Rocket 3.2 20:29:42 27° N 20:29:42 27° N 20:31:49 10° N
MetOp-A 4.1 20:32:24 77° SW 20:32:36 78° WSW 20:38:00 10° NNW
Cosmos 44 Rocket 4.0 20:34:28 10° NW 20:38:04 51° NW 20:38:04 51° NW
ARGOS 4.4 20:39:45 16° SSW 20:43:42 39° W 20:48:47 10° NNW
USA 234 3.3 20:51:08 65° NNE 20:51:08 65° NNE 20:57:33 10° NW
Lacrosse 5 rocket 3.5 20:47:52 10° NW 20:50:18 25° NNW 20:50:18 25° NNW
Cosmos 2297 Rocket 3.4 20:55:13 10° NNW 20:58:33 35° N 20:58:33 35° N
NOSS 3-2 (A) 4.0 20:54:22 10° NW 21:01:19 65° NNE 21:01:19 65° NNE
NOSS 3-2 (C) 4.3 20:54:56 10° NW 21:01:31 51° NNE 21:01:31 51° NNE
H-2A R/B 4.3 21:02:16 10° SW 21:06:24 22° W 21:10:36 10° NW
SJ 16-02 3.5 21:03:57 10° NW 21:06:36 23° WNW 21:06:36 23° WNW
Cosmos 2227 Rocket 3.7 21:13:26 10° NNW 21:16:15 30° NNW 21:16:15 30° NNW
CENTAUR R/B 3.5 21:21:22 10° NW 21:27:50 54° N 21:27:50 54° N
ATLAS 3B R/B 3.9 21:32:24 10° NW 21:36:32 33° N 21:36:32 33° N
